GW1087 Weather Reports


time (UTC)temp
C
wind
direction
speed
KPH
gust
KPH
rain 1hr
cm
rain 24hr
cm
rain mn
cm
humidity
%
barometer
mb
20260906154505 33 11 0.0 4.8 0.00 0.00 0.00 60 1014.8
20260906153036 32 28 0.0 3.2 0.00 0.00 0.00 64 1014.9
20260906151504 32 72 1.6 3.2 0.00 0.00 0.00 65 1014.7
20260906150034 31 56 0.0 3.2 0.00 0.00 0.00 70 1014.8
20260906144554 30 84 0.0 1.6 0.00 0.00 0.00 70 1014.9
20260906143029 30 98 0.0 1.6 0.00 0.00 0.00 74 1015.0
20260906141508 28 91 0.0 3.2 0.00 0.00 0.00 75 1015.0
20260906140040 27 85 0.0 3.2 0.00 0.00 0.00 78 1015.1
20260906134557 26 108 0.0 1.6 0.00 0.00 0.00 83 1015.0
20260906133026 25 108 0.0 1.6 0.00 0.00 0.00 85 1015.0
20260906131544 24 214 0.0 0.0 0.00 0.00 0.00 89 1014.8
20260906130051 22 214 0.0 0.0 0.00 0.00 0.00 91 1014.6
20260906124503 22 214 0.0 0.0 0.00 0.00 0.00 92 1014.5
20260906123035 22 214 0.0 0.0 0.00 0.00 0.00 93 1014.6
20260906121533 21 214 0.0 0.0 0.00 0.00 0.00 93 1014.3
20260906120109 21 214 0.0 0.0 0.00 0.00 0.00 92 1014.2
20260906114506 22 214 0.0 0.0 0.00 0.00 0.00 92 1014.0
20260906113045 22 213 0.0 0.0 0.00 0.00 0.00 91 1013.9
20260906111507 22 228 0.0 0.0 0.00 0.00 0.00 90 1013.8
20260906110030 22 228 0.0 0.0 0.00 0.00 0.00 90 1013.7
20260906104547 22 228 0.0 0.0 0.00 0.00 0.00 90 1013.7
20260906103040 22 228 0.0 0.0 0.00 0.00 0.00 90 1013.7
20260906101524 22 228 0.0 0.0 0.00 0.00 0.00 90 1013.5
20260906100042 22 228 0.0 0.0 0.00 0.00 0.00 90 1013.5
20260906094604 22 228 0.0 0.0 0.00 0.00 0.00 89 1013.5
20260906093035 22 244 0.0 0.0 0.00 0.00 0.00 89 1013.3
20260906091543 22 207 0.0 1.6 0.00 0.00 0.00 89 1013.2
20260906090011 23 213 0.0 0.0 0.00 0.00 0.00 88 1012.9
20260906084511 23 213 0.0 0.0 0.00 0.00 0.00 88 1013.0
20260906083044 23 213 0.0 0.0 0.00 0.00 0.00 86 1013.1
20260906081536 23 214 0.0 0.0 0.00 0.00 0.00 85 1012.9
20260906074506 23 213 0.0 0.0 0.00 0.00 0.00 85 1013.1
20260906073041 23 213 0.0 0.0 0.00 0.00 0.00 85 1013.1
20260906071526 24 213 0.0 0.0 0.00 0.00 0.00 83 1013.3
20260906070056 24 213 0.0 0.0 0.00 0.00 0.00 82 1013.2
20260906064533 25 213 0.0 0.0 0.00 0.00 0.00 82 1013.3
20260906063054 25 213 0.0 0.0 0.00 0.00 0.00 80 1013.2
20260906061517 25 213 0.0 0.0 0.00 0.00 0.00 80 1013.4
20260906060047 25 213 0.0 0.0 0.00 0.00 0.00 80 1013.1
20260906054500 25 213 0.0 0.0 0.00 0.00 0.00 80 1013.3
20260906053001 25 213 0.0 0.0 0.00 0.00 0.00 79 1013.1
20260906051533 25 213 0.0 0.0 0.00 0.00 0.00 78 1012.8
20260906050050 25 213 0.0 0.0 0.00 0.00 0.00 80 1012.8
20260906044529 26 213 0.0 0.0 0.00 0.00 0.00 76 1012.7
20260906043050 26 213 0.0 0.0 0.00 0.00 0.00 74 1012.7
20260906041520 26 213 0.0 0.0 0.00 0.00 0.00 73 1012.8
20260906040009 26 213 0.0 0.0 0.00 0.00 0.00 75 1012.7
20260906034555 26 213 0.0 0.0 0.00 0.00 0.00 74 1012.9
20260906033027 27 213 0.0 0.0 0.00 0.00 0.00 72 1012.8
20260906031541 27 213 0.0 0.0 0.00 0.00 0.00 69 1012.7
20260906030009 28 213 0.0 0.0 0.00 0.00 0.00 68 1012.7
20260906024544 28 229 0.0 0.0 0.00 0.00 0.00 67 1012.6
20260906023057 29 229 0.0 0.0 0.00 0.00 0.00 64 1012.5
20260906021548 30 229 0.0 0.0 0.00 0.00 0.00 62 1012.1
20260906020002 30 229 0.0 0.0 0.00 0.00 0.00 61 1011.8
20260906014549 30 214 0.0 3.2 0.00 0.00 0.00 64 1011.7
20260906013055 30 208 1.6 4.8 0.00 0.00 0.00 62 1011.5
20260906011507 31 227 0.0 0.0 0.00 0.00 0.00 55 1011.1
20260906010040 32 227 0.0 0.0 0.00 0.00 0.00 56 1011.0
20260906004542 32 160 0.0 0.0 0.00 0.00 0.00 53 1011.0
20260906003111 33 160 0.0 0.0 0.00 0.00 0.00 51 1011.0
20260906001526 33 160 0.0 0.0 0.00 0.00 0.00 50 1011.0
20260906000038 34 160 0.0 0.0 0.00 0.00 0.00 48 1011.3
20260905234606 35 160 0.0 0.0 0.00 0.00 0.00 47 1011.2
20260905233025 36 160 0.0 0.0 0.00 0.00 0.00 45 1011.1
20260905231510 36 160 0.0 0.0 0.00 0.00 0.00 42 1011.1
20260905230042 37 169 0.0 0.0 0.00 0.00 0.00 41 1011.1
20260905224558 38 169 0.0 1.6 0.00 0.00 0.00 40 1011.1
20260905223027 39 168 0.0 1.6 0.00 0.00 0.00 39 1010.9
20260905221545 39 218 0.0 0.0 0.00 0.00 0.00 38 1011.0
20260905220006 38 338 0.0 3.2 0.00 0.00 0.00 38 1010.9
20260905214536 39 62 0.0 3.2 0.00 0.00 0.00 37 1011.2
20260905213041 39 273 0.0 4.8 0.00 0.00 0.00 37 1011.3
20260905211505 39 148 3.2 9.7 0.00 0.00 0.00 37 1011.5
20260905210036 38 158 0.0 6.4 0.00 0.00 0.00 40 1011.8
20260905204601 38 72 3.2 8.0 0.00 0.00 0.00 38 1012.0
20260905203022 38 91 0.0 4.8 0.00 0.00 0.00 39 1012.2
20260905201551 38 345 1.6 4.8 0.00 0.00 0.00 39 1012.4
20260905200027 38 322 0.0 6.4 0.00 0.00 0.00 40 1012.7
20260905194559 38 335 0.0 4.8 0.00 0.00 0.00 40 1012.7
20260905193024 37 344 0.0 6.4 0.00 0.00 0.00 42 1013.1
20260905191551 38 98 0.0 4.8 0.00 0.00 0.00 43 1013.4
20260905184533 37 234 1.6 4.8 0.00 0.00 0.00 45 1013.8
20260905183046 37 150 1.6 6.4 0.00 0.00 0.00 44 1014.2
20260905181547 37 59 0.0 9.7 0.00 0.00 0.00 49 1014.2
20260905180013 36 167 0.0 6.4 0.00 0.00 0.00 48 1014.4
20260905174543 36 94 1.6 8.0 0.00 0.00 0.00 48 1014.7
20260905173059 36 340 1.6 8.0 0.00 0.00 0.00 51 1014.7
20260905171529 36 248 1.6 8.0 0.00 0.00 0.00 53 1014.9
20260905170059 36 91 6.4 9.7 0.00 0.00 0.00 52 1015.1
20260905164537 35 167 1.6 9.7 0.00 0.00 0.00 56 1015.3
20260905163005 35 41 0.0 6.4 0.00 0.00 0.00 58 1015.3
20260905161535 34 130 1.6 6.4 0.00 0.00 0.00 59 1015.3
20260905160034 33 49 1.6 6.4 0.00 0.00 0.00 62 1015.6